Weather History for Gulkana, AK

Change the Weather History Date:

Saturday, August 17, 2013

  Actual Average Record
Temperature  
Mean Temperature 54 °F -  
Max Temperature 61 °F 65 °F 84 °F (2004)
Min Temperature 48 °F 41 °F 25 °F (1969)
Degree Days  
Heating Degree Days 10    
Growing Degree Days 4 (Base 50)    
Moisture  
Dew Point 50 °F    
Average Humidity 89    
Maximum Humidity 100    
Minimum Humidity 64    
Precipitation  
Precipitation 0.16 in - - ()
Sea Level Pressure  
Sea Level Pressure 29.59 in    
Wind  
Wind Speed 5 mph (South)    
Max Wind Speed 9 mph    
Max Gust Speed -    
Visibility 10 miles    
Events Rain    
Averages and records for this station are not official NWS values.
T = Trace of Precipitation, MM = Missing Value Source: NWS Daily Summary

Daily Weather History Graph

Daily Weather History Graph

Search for Another Location

Airport:

Trip Planner

Search our weather history database for the weather conditions in past years. The results will help you decide how hot, cold, wet, or windy it might be!

Date:

Astronomy

Aug. 17, 2013 Rise Set
Actual Time 5:51 AM AKDT 9:37 PM AKDT
Civil Twilight 4:55 AM AKDT 10:33 PM AKDT
Nautical Twilight 3:26 AM AKDT 11:59 PM AKDT
Astronomical Twilight Sun does not rise Sun does not rise
Moon 7:32 PM AKDT (8/17) 1:25 AM AKDT (8/17)
Length of Visible Light 17h 37m
Length of Day
15h 46m
Waxing Gibbous, 85% of the Moon is Illuminated
Aug 17
Waxing Gibbous
Aug 20
Full
Aug 28
Last Quarter
Sep 5
New
Sep 12
First Quarter

Hourly Weather History & Observations

Time (AKDT) Temp. Dew Point Humidity Pressure Visibility Wind Dir Wind Speed Gust Speed Precip Events Conditions
12:53 AM 55.0 °F 43.0 °F 64% 29.64 in 10.0 mi South 5.8 mph - N/A   Overcast
1:53 AM 54.0 °F 43.0 °F 66% 29.65 in 10.0 mi SSE 8.1 mph - N/A   Mostly Cloudy
2:53 AM 53.1 °F 44.1 °F 71% 29.65 in 10.0 mi South 9.2 mph - N/A   Overcast
3:53 AM 51.1 °F 46.9 °F 86% 29.65 in 10.0 mi South 8.1 mph - 0.00 in Rain Light Rain
4:53 AM 50.0 °F 48.0 °F 93% 29.64 in 10.0 mi Calm Calm - 0.02 in   Overcast
5:53 AM 50.0 °F 48.0 °F 93% 29.64 in 10.0 mi South 3.5 mph - 0.00 in Rain Light Rain
6:53 AM 50.0 °F 48.0 °F 93% 29.65 in 10.0 mi North 3.5 mph - 0.00 in Rain Light Rain
7:53 AM 51.1 °F 48.9 °F 92% 29.65 in 10.0 mi Calm Calm - 0.01 in   Overcast
8:53 AM 54.0 °F 50.0 °F 86% 29.65 in 10.0 mi North 3.5 mph - N/A   Overcast
9:53 AM 55.9 °F 50.0 °F 80% 29.63 in 10.0 mi NNE 4.6 mph - N/A   Overcast
10:53 AM 57.9 °F 50.0 °F 75% 29.62 in 10.0 mi Calm Calm - N/A   Mostly Cloudy
11:53 AM 59.0 °F 50.0 °F 72% 29.62 in 10.0 mi Calm Calm - N/A   Mostly Cloudy
12:53 PM 59.0 °F 51.1 °F 75% 29.62 in 10.0 mi Calm Calm - 0.00 in Rain Light Rain
1:53 PM 57.0 °F 54.0 °F 89% 29.61 in 10.0 mi Calm Calm - 0.01 in Rain Light Rain
2:53 PM 55.9 °F 52.0 °F 87% 29.60 in 10.0 mi SSW 5.8 mph - 0.01 in Rain Light Rain
3:53 PM 55.0 °F 52.0 °F 89% 29.60 in 10.0 mi South 6.9 mph - 0.02 in Rain Light Rain
4:53 PM 53.1 °F 52.0 °F 96% 29.60 in 7.0 mi South 8.1 mph - 0.02 in Rain Light Rain
5:01 PM 53.1 °F 52.0 °F 96% 29.58 in 7.0 mi South 5.8 mph - 0.01 in Rain Light Rain
5:25 PM 53.1 °F 52.0 °F 96% 29.58 in 6.0 mi South 6.9 mph - 0.05 in Rain Light Rain
5:53 PM 53.1 °F 52.0 °F 96% 29.59 in 6.0 mi South 8.1 mph - 0.08 in Rain Light Rain
6:53 PM 53.1 °F 52.0 °F 96% 29.57 in 10.0 mi South 5.8 mph - 0.04 in Rain Light Rain
7:11 PM 53.1 °F 52.0 °F 96% 29.55 in 10.0 mi South 8.1 mph - 0.00 in Rain Light Rain
7:21 PM 53.1 °F 52.0 °F 96% 29.55 in 10.0 mi South 5.8 mph - 0.00 in Rain Light Rain
7:53 PM 53.1 °F 52.0 °F 96% 29.56 in 10.0 mi South 5.8 mph - 0.00 in   Overcast
8:08 PM 53.1 °F 52.0 °F 96% 29.54 in 10.0 mi South 5.8 mph - 0.00 in Rain Light Rain
8:18 PM 53.1 °F 52.0 °F 96% 29.54 in 10.0 mi South 5.8 mph - 0.00 in Rain Light Rain
8:28 PM 53.1 °F 52.0 °F 96% 29.54 in 10.0 mi South 5.8 mph - 0.00 in   Overcast
8:53 PM 53.1 °F 52.0 °F 96% 29.55 in 10.0 mi South 3.5 mph - 0.00 in   Overcast
9:53 PM 52.0 °F 51.1 °F 97% 29.54 in 10.0 mi South 3.5 mph - 0.01 in   Overcast
10:15 PM 52.0 °F 51.1 °F 97% 29.52 in 10.0 mi SSW 3.5 mph - N/A   Overcast
10:26 PM 52.0 °F 51.1 °F 97% 29.52 in 10.0 mi Calm Calm - N/A   Overcast
10:37 PM 52.0 °F 51.1 °F 97% 29.52 in 10.0 mi Calm Calm - N/A   Overcast
10:53 PM 52.0 °F 51.1 °F 97% 29.52 in 10.0 mi Calm Calm - N/A   Overcast
11:53 PM 51.1 °F 51.1 °F 100% 29.51 in 10.0 mi Calm Calm - 0.00 in   Overcast